Погода в Цунте

Россия / Республика Дагестан     42°12′08″N   45°56′06″E
темп.,
°C
ветер,
м/с
пор.,
м/с
влажн.,
%
обл.,
%
осадки,
мм/ч
давл.,
гПа
погр.,
м
25 июня, сб
сб2500:00+6ю12979 1.7 101430
03:00+5ююв22977 1.9 101429
06:00+8ююв12926 0.6 1013101
09:00+13ююз34755 2.1 1012803
12:00+14ююз356811 1.9 10111146
15:00+14ю36695 3.4 10111302
18:00+11зсз2283100 1.0 101399
21:00+8св1193100 3.7 101521
26 июня, вс
вс2600:00+7ссв239597 1.8 101573
03:00+7вюв1192100 3.4 101314
06:00+10ююв2288100 1.9 101144
09:00+11ююв3484100 3.3 1010539
12:00+12ююз137999 2.9 1010302
15:00+14ююз3471100 5.5 1009947
18:00+12ю228399 2.8 1009114
21:00+9вюв229294 3.9 101330
27 июня, пн
пн2700:00+8в11916 0.1 101310
03:00+7в11874 0.1 101311
06:00+11всв11805 0.0 101340
09:00+18ююв13451 0.0 10101525
12:00+20ююз363920 0.4 10092474
15:00+19ю25432 1.1 10091979
18:00+16юв01681 1.8 101195
21:00+8св1191100 3.3 101611
28 июня, вт
вт2800:00+10юв1190100 1.4 101522
03:00+9с229142 1.8 101445
06:00+11вюв11821 0.0 101360
09:00+17ююз22520 0.0 10101018
12:00+19ююз33403 0.1 10092095
15:00+19ююз23445 0.4 10092074
18:00+14с237511 1.4 1012121
21:00+8с3393100 3.6 101675
29 июня, ср
ср2900:00+8св2294100 3.5 101633
03:00+7св11904 3.8 101511
06:00+10ссв22898 0.0 101596
09:00+14сз017213 0.4 1013611
12:00+15зюз12724 2.4 1013907
15:00+15зюз11763 7.9 1013510
18:00+13сз018416 4.0 1013225
21:00+8ссв2195100 7.8 101639